Погода в Бауэрфилде

Вануату     17°41′59″S   168°19′09″E
темп.,
°C
ветер,
м/с
пор.,
м/с
влажн.,
%
обл.,
%
осадки,
мм/ч
давл.,
гПа
погр.,
м
1 марта, пн
пн123:00+25вюв468193 0.2 1007493
02:00+25юв457867 0.1 1006540
05:00+25ююв357680 0.1 1005538
08:00+27ююв4568100 0.0 1007981
11:00+28ююв5567100 0.0 10071020
14:00+28юв5570100 0.0 1005899
17:00+28юв457395 0.1 1004922
20:00+26вюв238146 0.2 1007415
2 марта, вт
вт223:00+25всв238439 0.8 1007301
02:00+25с2285100 1.8 1006123
05:00+25юв018254 2.0 1005271
08:00+27вюв12730 0.0 1008559
11:00+30юв446418 0.0 10061038
14:00+30в336580 0.1 1005949
17:00+29св236683 0.2 1005720
20:00+26св457279 0.0 1007250
3 марта, ср
ср323:00+26всв358090 0.0 1008270
02:00+26св3683100 5.3 1006242
05:00+27ссв61084100 16.9 1006508
08:00+26сз5889100 10.3 1007476
11:00+28с5980100 11.3 10061003
14:00+29ссв71177100 4.2 10041036
17:00+28с81080100 7.0 1004870
20:00+28с81183100 1.8 1005753
4 марта, чт
чт423:00+28ссз101380100 4.5 1006857
02:00+27ссз81183100 2.8 1004839
05:00+27сз71084100 6.8 1005687
08:00+28ссз5781100 2.1 1007805
11:00+28ссз71079100 3.9 10061068
14:00+28ссз91279100 3.1 10041066
17:00+26ссз91388100 9.6 1004941
20:00+27ссз81384100 6.2 1005961
5 марта, пт
пт523:00+26ссв4784100 8.0 1005493
02:00+26ссз111594100 14.8 1002896
05:00+26с111690100 25.1 10011164
08:00+26ссз121890100 8.1 10021222
11:00+26с121788100 17.6 10011269
14:00+26сз121686100 13.3 10001191
17:00+26ссз121685100 16.5 9991066
20:00+26ссз111884100 1.2 10011322